Вернуться в каталог

STARLINK-2635

АктивенСвязьVLEO
NORAD 48355·PAYLOAD·🇺🇸 United States

Запущен May 4, 2021 с Cape Canaveral Space Force Station

Loading…

Ближайшие Пролёты (ближайшие 24 часа)

TLE

СвежийSource: CelesTrak SupGP

Эпоха: Sep 15, 2026, 02:13 UTC

1 48355C 21038C   26258.09284722 -.00013876  00000+0 -44622-3 0  2581
2 48355  53.1608 196.6694 0001487  83.8541 282.5303 15.31707573    13

Отслеживайте STARLINK-2635 в реальном времени с AllMySat

Download on the App Store